Preview of NWS' New Version of Forecast
This preview is not operational and should not be used for support decisions.

Regional Weather Roundup (RWR)

Issued by National Weather Service (NWS)

                            
000
ASUS46 KSEW 212010
RWRWA 

WASHINGTON REGIONAL WEATHER ROUNDUP
NATIONAL WEATHER SERVICE SEATTLE WA
100 PM PDT SUN JUL 21 2019

NOTE:"FAIR" INDICATES FEW OR NO CLOUDS BELOW 12,000 FEET WITH NO 
SIGNIFICANT WEATHER AND/OR OBSTRUCTIONS TO VISIBILITY.

WAZ507-509-555>559-212100-
SEATTLE, TACOMA, EVERETT, AND VICINITY
  
CITY           SKY/WX    TMP DP  RH WIND       PRES   REMARKS
EVERETT        SUNNY     79  53  40 W5        30.00F                  
BOEING FIELD   SUNNY     80  48  32 NW7       29.97F                  
RENTON         SUNNY     80  55  42 N7        29.96F                  
SEATAC AIRPORT SUNNY     81  50  33 W8        29.98F                  
JBLM-MCCHORD   SUNNY     81  59  46 NW8       29.97F                  
PUYALLUP       FAIR      82  50  32 CALM      29.98F                  
BREMERTON      SUNNY     83  47  28 CALM      29.98F                  
JBLM-FT LEWIS  SUNNY     81  57  43 W8        29.97F                  
TACOMA NARROWS SUNNY     74  53  48 SE5       29.97F                  
$$
 
WAZ001-503-506-510-514-515-212100-
NORTH INTERIOR
  
CITY           SKY/WX    TMP DP  RH WIND       PRES   REMARKS
BELLINGHAM     SUNNY     81  59  47 VRB3      29.98F                  
FRIDAY HARBOR  SUNNY     75  52  44 SE5       30.00F                  
EASTSOUND      SUNNY     70  57  64 N6        29.99S                  
PORT ANGELES   SUNNY     67  50  54 VRB6      30.02F                  
EDIZ HOOK      FAIR      60  52  74 W10G16    30.02S                  
PORT TOWNSEND  FAIR      73  54  49 SW9       29.98F                  
NAS WHIDBEY    MOSUNNY   70  51  51 W7        30.03F                  
ARLINGTON        N/A     83  55  38 N9        29.97F                  
BURLINGTON     SUNNY     84  57  39 VRB3      29.98F                  
$$
 
WAZ020-022-039-040-504-511-512-212100-
SOUTHWEST INTERIOR
  
CITY           SKY/WX    TMP DP  RH WIND       PRES   REMARKS
SHELTON        SUNNY     84  47  27 CALM      29.95F                  
OLYMPIA        SUNNY     80  49  33 MISG      29.98F                  
CHEHALIS       FAIR      82  55  39 N6        29.97F                  
KELSO          SUNNY     78  56  46 VRB5      29.98F                  
VANCOUVER      SUNNY     78  51  38 SW6       29.95F                  
SCAPPOOSE, OR  SUNNY     82  55  39 N6        29.95F                  
PORTLAND, OR   SUNNY     80  47  31 VRB3      29.96F                  
$$
 
WAZ021-516-517-212100-
WASHINGTON COAST
  
CITY           SKY/WX    TMP DP  RH WIND       PRES   REMARKS
FORKS          SUNNY     75  53  46 W6        30.01S                  
HOQUIAM        SUNNY     72  55  55 W9        30.01S                  
ASTORIA, OR    CLOUDY    67  59  75 W7        30.02S                  
$$
 
WAZ019-023-024-040-567>569-212100-
CASCADE MOUNTAINS AND COLUMBIA GORGE
  
CITY           SKY/WX    TMP DP  RH WIND       PRES   REMARKS
STAMPEDE PASS  SUNNY     75  43  31 CALM      30.13F                  
TROUTDALE, OR  SUNNY     80  52  37 VRB5      29.95F                  
HOOD RIVER, OR CLEAR     86  43  22 NE5       29.96F                  
THE DALLES, OR SUNNY     88  41  19 CALM      29.94F                  
$$

WAZ026-027-041>044-520-521-212100-
EAST SLOPES
  
CITY           SKY/WX    TMP DP  RH WIND       PRES   REMARKS
OMAK           SUNNY     83  42  23 VRB5      30.04F                  
WENATCHEE      SUNNY     81  41  24 SW9G17    30.03F                  
ELLENSBURG     SUNNY     86  42  21 S10       30.04F                  
YAKIMA         SUNNY     86  42  21 VRB5      30.01F                  
SUNNYSIDE ARPT NOT AVBL                                               
YAKIMA TC      FAIR      85  34  16 NE10G17   30.00                   
$$

WAZ028-034-035-212100-
COLUMBIA BASIN
  
CITY           SKY/WX    TMP DP  RH WIND       PRES   REMARKS
EPHRATA        SUNNY     85  37  18 MISG      30.02F                  
MOSES LAKE     SUNNY     89  40  17 NE14G22   30.02F                  
PASCO          SUNNY     86  49  27 NW12      29.98F                  
RICHLAND ARPT  CLEAR     88  40  18 N10G16    29.98                   
HERMISTON, OR  SUNNY     86  46  24 N8        29.97F                  
$$

WAZ036>038-212100-
NORTHEAST WASHINGTON
  
CITY           SKY/WX    TMP DP  RH WIND       PRES   REMARKS
SPOKANE GEIGER MOSUNNY   80  40  23 N6        30.08F                  
SPOKANE FELTS  SUNNY     84  40  21 VRB6      30.06F                  
FAIRCHILD AFB  SUNNY     78  37  22 NE5       30.08F                  
COEURDALENE,ID SUNNY     80  44  27 NE7       30.08F                  
DEER PARK      SUNNY     81  43  26 N8        30.08F                  
$$

WAZ029>033-212100-
SOUTHEAST WASHINGTON
  
CITY           SKY/WX    TMP DP  RH WIND       PRES   REMARKS
PULLMAN        SUNNY     80  37  21 SE3       30.08F                  
LEWISTON, ID   SUNNY     84  38  19 E5        30.01F                  
WALLA WALLA    SUNNY     84  38  19 VRB5      30.00F                  
PENDLETON, OR  SUNNY     87  36  16 VRB7      29.97F                  
$$